Essaouira, Morocco

2:41 AM WEST on May 01, 2017 (GMT +0100)
Essaouira

Weather History for GMMI - December, 2013

Change the Weather History Date:

Tuesday, December 17, 2013

  Actual Average Record
Temperature  
Mean Temperature 58 °F -  
Max Temperature 67 °F 65 °F - ()
Min Temperature 50 °F 52 °F - ()
Degree Days  
Heating Degree Days 6    
Growing Degree Days 8 (Base 50)    
Moisture  
Dew Point 51 °F    
Average Humidity 67    
Maximum Humidity 94    
Minimum Humidity 43    
Precipitation  
Precipitation 0.00 in 0.08 in - ()
Sea Level Pressure  
Sea Level Pressure 30.34 in    
Wind  
Wind Speed 6 mph ()    
Max Wind Speed 11 mph    
Max Gust Speed -    
Visibility 4.8 miles    
Events      
T = Trace of Precipitation, MM = Missing Value Source: Averaged Metar Reports

Daily Weather History Graph

Daily Weather History Graph

Search for Another Location

Airport or City:

Trip Planner

Search our weather history database for the weather conditions in past years. The results will help you decide how hot, cold, wet, or windy it might be!

Date:

Astronomy

Dec. 17, 2013 Rise Set
Actual Time 7:32 AM WET 5:38 PM WET
Civil Twilight 7:05 AM WET 6:05 PM WET
Nautical Twilight 6:35 AM WET 6:35 PM WET
Astronomical Twilight 6:05 AM WET 7:05 PM WET
Moon 6:03 PM WET (12/17) 7:21 AM WET (12/17)
Length of Visible Light 10h 59m
Length of Day
10h 06m
Full, 100% of the Moon is Illuminated
Dec 17
Full
Dec 25
Last Quarter
Jan 1
New
Jan 8
First Quarter
Jan 16
Full

Hourly Weather History & Observations

Time (WET) Temp. Dew Point Humidity Pressure Visibility Wind Dir Wind Speed Gust Speed Precip Events Conditions
12:00 AM 57 °F 53 °F 81% 30.30 in - SE 8.9 mph - -  
3:00 AM 55 °F 50 °F 79% 30.27 in - ESE 4.5 mph - -  
6:00 AM 55 °F 50 °F 78% 30.24 in 5 mi East 4.6 mph - -   Partly Cloudy
7:00 AM 50.0 °F 48.2 °F 94% 30.36 in 3.7 mi East 9.2 mph - N/A   Mostly Cloudy
8:00 AM 50.0 °F 46.4 °F 87% 30.36 in 3.7 mi East 6.9 mph - N/A   Mostly Cloudy
9:00 AM 56 °F 50 °F 73% 30.40 in 5 mi East 4.6 mph - -   Partly Cloudy
9:00 AM 53.6 °F 50.0 °F 88% 30.39 in 3.7 mi East 6.9 mph - N/A   Scattered Clouds
10:00 AM 64.4 °F 50.0 °F 59% 30.39 in 5.0 mi East 6.9 mph - N/A   Partly Cloudy
11:00 AM 66.2 °F 48.2 °F 52% 30.39 in 5.0 mi ENE 6.9 mph - N/A   Scattered Clouds
12:00 PM 67 °F 56 °F 59% 30.37 in 5 mi NNE 2.3 mph - -   Partly Cloudy
12:00 PM 68.0 °F 48.2 °F 49% 30.36 in 5.0 mi NE 6.9 mph - N/A   Scattered Clouds
1:00 PM 68.0 °F 44.6 °F 43% 30.36 in 5.0 mi NW 6.9 mph - N/A   Mostly Cloudy
2:00 PM 68.0 °F 48.2 °F 49% 30.33 in 5.0 mi North 6.9 mph - N/A   Mostly Cloudy
3:00 PM 65 °F 57 °F 69% 30.35 in 6 mi NNW 6.9 mph - -  
3:00 PM 66.2 °F 48.2 °F 52% 30.33 in 5.0 mi North 4.6 mph - N/A   Mostly Cloudy
4:00 PM 66.2 °F 51.8 °F 60% 30.33 in 5.0 mi NNW 8.1 mph - N/A   Scattered Clouds
5:00 PM 64.4 °F 51.8 °F 64% 30.33 in 5.0 mi North 8.1 mph - N/A   Scattered Clouds
6:00 PM 63 °F 56 °F 70% 30.36 in 5 mi NNE 4.6 mph - -   Scattered Clouds
6:00 PM 62.6 °F 51.8 °F 68% 30.33 in 5.0 mi North 8.1 mph - N/A   Scattered Clouds
9:00 PM 61 °F 55 °F 75% 30.33 in - NNE 11.2 mph - -